Weather History for Holland, MI

Change the Weather History Date:

Tuesday, April 16, 2013

  Actual Average Record
Temperature  
Mean Temperature 45 °F 49 °F  
Max Temperature 48 °F 58 °F 84 °F (2002)
Min Temperature 42 °F 39 °F 22 °F (1978)
Degree Days  
Heating Degree Days 20 17  
Month to date heating degree days 355 311  
Since 1 July heating degree days 5597 5685  
Cooling Degree Days 0 0  
Month to date cooling degree days 0 0  
Year to date cooling degree days 0 0  
Moisture  
Dew Point 35 °F    
Average Humidity 70    
Maximum Humidity 86    
Minimum Humidity 53    
Precipitation  
Precipitation 0.09 in 0.11 in 2.00 in (1972)
Month to date precipitation 4.39 1.46  
Year to date precipitation 11.15 7.62  
Sea Level Pressure  
Sea Level Pressure 30.11 in    
Wind  
Wind Speed 8 mph (NW)    
Max Wind Speed 15 mph    
Max Gust Speed 22 mph    
Visibility 10 miles    
Events Rain    
T = Trace of Precipitation, MM = Missing Value Source: NWS Daily Summary

Daily Weather History Graph

Daily Weather History Graph

Search for Another Location

Airport:

Trip Planner

Search our weather history database for the weather conditions in past years. The results will help you decide how hot, cold, wet, or windy it might be!

Date:

Astronomy

Apr. 16, 2013 Rise Set
Actual Time 7:00 AM EDT 8:28 PM EDT
Civil Twilight 6:31 AM EDT 8:57 PM EDT
Nautical Twilight 5:55 AM EDT 9:33 PM EDT
Astronomical Twilight 5:18 AM EDT 10:11 PM EDT
Moon 11:15 AM EDT (4/16) 1:28 AM EDT (4/16)
Length of Visible Light 14h 26m
Length of Day
13h 27m
Waxing Crescent, 33% of the Moon is Illuminated
Apr 16
Waxing Crescent
Apr 18
First Quarter
Apr 25
Full
May 2
Last Quarter
May 9
New

Hourly Weather History & Observations

Time (EDT) Temp. Windchill Dew Point Humidity Pressure Visibility Wind Dir Wind Speed Gust Speed Precip Events Conditions
12:53 AM 48.0 °F - 44.1 °F 86% 29.96 in 5.0 mi WSW 4.6 mph - 0.12 in Rain Rain
1:23 AM 48.2 °F - 44.6 °F 87% 29.98 in 7.0 mi West 8.1 mph - 0.04 in Rain Light Rain
1:53 AM 46.9 °F - 43.0 °F 86% 29.97 in 10.0 mi West 10.4 mph - 0.08 in Rain Light Rain
2:53 AM 45.0 °F 43.5 °F 39.9 °F 82% 29.97 in 10.0 mi West 3.5 mph - 0.02 in   Overcast
3:17 AM 44.6 °F 43.1 °F 39.2 °F 81% 29.96 in 10.0 mi WNW 3.5 mph - 0.00 in Rain Light Rain
3:53 AM 44.1 °F 40.8 °F 39.0 °F 82% 29.97 in 10.0 mi WNW 5.8 mph - 0.00 in   Overcast
4:07 AM 42.8 °F 39.3 °F 39.2 °F 87% 29.97 in 10.0 mi WNW 5.8 mph - N/A   Overcast
4:53 AM 44.1 °F 40.8 °F 39.0 °F 82% 29.93 in 10.0 mi West 5.8 mph - N/A   Overcast
5:38 AM 44.6 °F 39.2 °F 39.2 °F 81% 30.01 in 10.0 mi WNW 10.4 mph - N/A   Overcast
5:53 AM 44.1 °F 39.0 °F 37.9 °F 79% 29.96 in 10.0 mi NW 9.2 mph - N/A   Overcast
6:53 AM 43.0 °F 38.8 °F 35.1 °F 74% 29.96 in 10.0 mi NNW 6.9 mph - N/A   Overcast
7:53 AM 42.1 °F 39.2 °F 33.1 °F 70% 30.06 in 10.0 mi WNW 4.6 mph - N/A   Partly Cloudy
8:53 AM 44.1 °F 39.5 °F 33.1 °F 65% 30.09 in 10.0 mi NW 8.1 mph - N/A   Clear
9:53 AM 45.0 °F 39.3 °F 32.0 °F 60% 30.11 in 10.0 mi WNW 11.5 mph 17.3 mph N/A   Clear
10:53 AM 46.0 °F 41.0 °F 32.0 °F 58% 30.14 in 10.0 mi NW 10.4 mph - N/A   Clear
11:53 AM 46.0 °F 41.0 °F 32.0 °F 58% 30.16 in 10.0 mi WNW 10.4 mph 18.4 mph N/A   Clear
12:53 PM 46.0 °F 40.2 °F 32.0 °F 58% 30.17 in 10.0 mi NW 12.7 mph - N/A   Clear
1:53 PM 46.9 °F - 34.0 °F 61% 30.19 in 10.0 mi WNW 10.4 mph 18.4 mph N/A   Clear
2:53 PM 46.9 °F - 34.0 °F 61% 30.21 in 10.0 mi WNW 11.5 mph - N/A   Clear
3:53 PM 46.9 °F - 32.0 °F 56% 30.21 in 10.0 mi NW 11.5 mph 19.6 mph N/A   Clear
4:53 PM 46.9 °F - 32.0 °F 56% 30.21 in 10.0 mi NNW 10.4 mph - N/A   Clear
5:53 PM 46.9 °F - 30.9 °F 54% 30.23 in 10.0 mi NW 9.2 mph - N/A   Clear
6:53 PM 46.0 °F 43.1 °F 30.9 °F 56% 30.24 in 10.0 mi NW 5.8 mph - N/A   Clear
7:53 PM 45.0 °F 41.2 °F 33.1 °F 63% 30.25 in 10.0 mi WNW 6.9 mph - N/A   Clear
8:53 PM 44.1 °F 40.1 °F 33.1 °F 65% 30.25 in 10.0 mi NW 6.9 mph - N/A   Clear
9:53 PM 45.0 °F 42.6 °F 33.1 °F 63% 30.27 in 10.0 mi NW 4.6 mph - N/A   Clear
10:53 PM 45.0 °F 42.6 °F 33.1 °F 63% 30.27 in 10.0 mi North 4.6 mph - N/A   Clear
11:53 PM 45.0 °F 42.6 °F 33.1 °F 63% 30.28 in 10.0 mi North 4.6 mph - N/A   Partly Cloudy